Simultaneous Nadir Overpasses (SNOs) Predictions

Prediction of SNOs between LANDSAT-8 and METOP-B Satellite Orbit:

Table of predicted SNOs for the next 14.0 days since TLE Epoch: 12/14/2013
Index Date (LANDSAT-8) Time (LANDSAT-8) Lat,Lon (LANDSAT-8) SZA (LANDSAT-8 ) Date (METOP-B) Time (METOP-B) Lat,Lon (METOP-B) SZA (METOP-B ) Distance(km) Time Diff (sec)
1 12/14/2013 20:50:15 -81.08, 86.75 73.67 12/14/2013 20:50:05 -81.09, 86.78 73.67 0.68 10
2 12/14/2013 21:39:40 81.11,-105.25 106.39 12/14/2013 21:40:43 81.11,-105.14 106.43 1.97 63
3 12/17/2013 15:35:01 81.07, -14.61 106.39 12/17/2013 15:33:48 81.08, -14.42 106.38 3.16 73
4 12/17/2013 16:24:27 -81.10, 153.43 73.55 12/17/2013 16:24:28 -81.10, 153.54 73.54 1.91 1
5 12/17/2013 17:13:28 81.59, -29.36 107.79 12/17/2013 17:14:41 81.32, -28.72 107.71 31.57 73
6
